Simultaneous Nadir Overpasses (SNOs) Predictions

Prediction of SNOs between NOAA-20 and METOP-C Satellite Orbit:

Table of predicted SNOs for the next 14.0 days since TLE Epoch: 5/25/2019
Index Date (NOAA-20) Time (NOAA-20) Lat,Lon (NOAA-20) SZA (NOAA-20 ) Date (METOP-C) Time (METOP-C) Lat,Lon (METOP-C) SZA (METOP-C ) Distance(km) Time Diff (sec)
1 05/25/2019 03:42:09 72.76, 116.26 51.95 05/25/2019 03:43:13 72.77, 116.29 51.95 1.54 64
2 05/25/2019 04:32:53 -72.76, -76.43 128.06 05/25/2019 04:33:56 -72.76, -76.41 128.07 0.60 63
3 05/25/2019 05:23:39 72.77, 90.87 51.94 05/25/2019 05:24:35 72.75, 90.91 51.92 2.20 56
4 05/25/2019 06:14:22 -72.77,-101.82 128.07 05/25/2019 06:15:17 -72.74,-101.79 128.10 3.08 55
5 05/25/2019 07:05:07 72.72, 65.59 51.88 05/25/2019 07:05:56 72.73, 65.53 51.89 2.17 49
6 05/25/2019 07:55:51 -72.72,-127.10 128.13 05/25/2019 07:56:39 -72.72,-127.17 128.13 2.40 48
7 05/25/2019 08:46:37 72.73, 40.20 51.88 05/25/2019 08:47:18 72.71, 40.15 51.85 2.63 41
8 05/25/2019 09:37:21 -72.73,-152.49 128.13 05/25/2019 09:38:00 -72.75,-152.45 128.12 2.84 39
9 05/25/2019 10:28:07 72.73, 14.81 51.87 05/25/2019 10:28:39 72.74, 14.87 51.87 2.11 32
10 05/25/2019 11:18:51 -72.73,-177.87 128.14 05/25/2019 11:19:22 -72.73,-177.83 128.15 1.58 31
11 05/25/2019 12:09:37 72.74, -10.58 51.87 05/25/2019 12:10:01 72.72, -10.51 51.84 3.08 24
12 05/25/2019 13:00:20 -72.69, 156.84 128.20 05/25/2019 13:00:44 -72.71, 156.79 128.18 2.91 24
13 05/25/2019 13:51:06 72.70, -35.86 51.81 05/25/2019 13:51:23 72.70, -35.89 51.81 1.18 17
14 05/25/2019 14:41:50 -72.70, 131.46 128.20 05/25/2019 14:42:06 -72.69, 131.41 128.21 1.52 16
15 05/25/2019 15:32:36 72.70, -61.25 51.80 05/25/2019 15:32:45 72.68, -61.27 51.78 2.49 9
16 05/25/2019 16:23:20 -72.70, 106.07 128.21 05/25/2019 16:23:27 -72.72, 106.14 128.19 3.18 7
17 05/25/2019 17:14:06 72.71, -86.64 51.80 05/25/2019 17:14:06 72.71, -86.55 51.79 2.92 0
18 05/25/2019 18:04:50 -72.71, 80.68 128.21 05/25/2019 18:04:49 -72.70, 80.76 128.22 2.57 1
19 05/25/2019 18:55:35 72.66,-111.92 51.73 05/25/2019 18:55:28 72.69,-111.93 51.76 3.13 7
20 05/25/2019 19:46:19 -72.67, 55.40 128.28 05/25/2019 19:46:11 -72.68, 55.38 128.25 2.22 8
21 05/25/2019 20:37:05 72.67,-137.31 51.73 05/25/2019 20:36:50 72.67,-137.31 51.73 0.21 15
22 05/25/2019 21:27:49 -72.67, 30.01 128.28 05/25/2019 21:27:33 -72.66, 30.00 128.28 0.91 16
23 05/25/2019 22:18:35 72.68,-162.69 51.72 05/25/2019 22:18:12 72.65,-162.69 51.70 2.73 23
24 05/25/2019 23:09:19 -72.68, 4.62 128.29 05/25/2019 23:08:55 -72.64, 4.62 128.31 3.67 24
25 05/26/2019 00:00:04 72.63, 172.02 51.66 05/25/2019 23:59:34 72.63, 171.93 51.67 3.07 30
26 05/26/2019 00:50:48 -72.63, -20.66 128.35 05/26/2019 00:50:17 -72.63, -20.76 128.34 3.54 31
27 05/26/2019 01:41:34 72.64, 146.64 51.66 05/26/2019 01:40:55 72.66, 146.65 51.69 2.81 39
28 05/26/2019 02:32:18 -72.64, -46.05 128.35 05/26/2019 02:31:38 -72.66, -46.04 128.33 1.85 40
29 05/26/2019 03:23:04 72.65, 121.25 51.65 05/26/2019 03:22:17 72.64, 121.27 51.66 0.89 47
30 05/26/2019 04:13:48 -72.65, -71.44 128.36 05/26/2019 04:13:00 -72.64, -71.42 128.36 1.18 48
31 05/26/2019 05:04:34 72.65, 95.86 51.65 05/26/2019 05:03:39 72.62, 95.89 51.63 3.30 55
32 05/26/2019 05:55:17 -72.60, -96.72 128.42 05/26/2019 05:54:22 -72.62, -96.80 128.39 3.15 55
33 05/26/2019 06:46:03 72.61, 70.58 51.59 05/26/2019 06:45:01 72.61, 70.51 51.60 2.13 62
34 05/26/2019 07:36:47 -72.61,-122.11 128.42 05/26/2019 07:35:44 -72.60,-122.18 128.42 2.70 63
35 05/26/2019 08:27:33 72.61, 45.19 51.58 05/26/2019 08:26:22 72.64, 45.24 51.61 2.86 71
36 05/26/2019 09:18:17 -72.61,-147.49 128.43 05/26/2019 09:17:05 -72.63,-147.46 128.40 2.00 72
37 05/26/2019 10:09:00 72.47, 20.11 51.41 05/26/2019 10:07:47 72.46, 19.55 51.45 18.85 73
38 05/26/2019 10:59:43 -72.42,-172.47 128.65 05/26/2019 10:58:30 -72.46,-173.14 128.57 22.90 73
39 05/26/2019 11:50:24 72.17, -4.67 51.08 05/26/2019 11:49:14 72.19, -6.33 51.19 56.55 70
40 05/26/2019 12:41:07 -72.12, 162.74 128.99 05/26/2019 12:39:58 -72.13, 160.88 128.87 63.46 69
41 05/26/2019 13:31:48 71.87, -29.48 50.74 05/26/2019 13:30:42 71.86, -32.30 50.88 97.66 66




NCC Satellite Simultaneous Nadir Overpasses (SNOs) Prediction Service
